sat.trackr.live / text

‹ back to catalog

SDA_1676

NORAD 65986 · 2025-230N

PAYLOAD ACTIVE UNKNOWN

§ Identity

Operator
Country
US
Launch date
2025-10-15
Launch site
AFWTR
Launch vehicle
Mass (kg)
RCS (m²)

External: N2YO · Heavens-Above · Gunter

§ Orbital elements

Epoch: 2026-05-21T18:46:40.117728Z

Period
104.42 min
Inclination
81.3024°
Eccentricity
0.0000944
Mean motion
13.78997230 rev/d
Perigee alt
966.8 km
Apogee alt
968.1 km
Semi-major
7,345.6 km
B*
4.9105e-5
RAAN
236.7175°
Arg perigee
126.6852°
Mean anomaly
233.4389°
Rev number
3,012

§ Raw data

SDA_16761 65986U 25230N   26141.78240877  .00000062  00000+0  49105-4 0  99932 65986  81.3024 236.7175 0000944 126.6852 233.4389 13.78997230 30129

JSON: /api/v1/satellites/65986 · /tle

For live sub-satellite position, see the globe view (requires WebGL).

§ Visibility from observer

Set your observer location to see the next 7 days of passes ≥ 10°. The values pass through the URL so the page stays shareable.

No JS? Fill the form by hand. The geolocation button needs JavaScript.